Weather History for Worland, WY

Change the Weather History Date:

Sunday, January 6, 2013

  Actual Average Record
Temperature  
Mean Temperature 10 °F 16 °F  
Max Temperature 19 °F 30 °F 53 °F (1966)
Min Temperature 0 °F 3 °F -33 °F (1979)
Degree Days  
Heating Degree Days 56 49  
Month to date heating degree days 294  
Since 1 July heating degree days 3657  
Cooling Degree Days 0 0  
Month to date cooling degree days 0  
Year to date cooling degree days 0  
Moisture  
Dew Point 3 °F    
Average Humidity 81    
Maximum Humidity 88    
Minimum Humidity 71    
Precipitation  
Precipitation 0.00 in 0.01 in 0.12 in (1976)
Month to date precipitation 0.05  
Year to date precipitation 0.05  
Sea Level Pressure  
Sea Level Pressure 30.23 in    
Wind  
Wind Speed 2 mph (SSW)    
Max Wind Speed 5 mph    
Max Gust Speed -    
Visibility 10 miles    
Events      
T = Trace of Precipitation, MM = Missing Value Source: NWS Daily Summary

Daily Weather History Graph

Daily Weather History Graph

Search for Another Location

Airport:

Trip Planner

Search our weather history database for the weather conditions in past years. The results will help you decide how hot, cold, wet, or windy it might be!

Date:

Astronomy

Jan. 06, 2013 Rise Set
Actual Time 7:46 AM MST 4:49 PM MST
Civil Twilight 7:13 AM MST 5:22 PM MST
Nautical Twilight 6:37 AM MST 5:58 PM MST
Astronomical Twilight 6:02 AM MST 6:33 PM MST
Moon 1:59 AM MST (1/6) 12:22 PM MST (1/6)
Length of Visible Light 10h 08m
Length of Day
9h 03m
Waning Crescent, 32% of the Moon is Illuminated
Jan 6
Waning Crescent
Jan 11
New
Jan 18
First Quarter
Jan 26
Full
Feb 3
Last Quarter

Hourly Weather History & Observations

Time (MST) Temp. Windchill Dew Point Humidity Pressure Visibility Wind Dir Wind Speed Gust Speed Precip Events Conditions
12:53 AM -0.9 °F - -4.0 °F 87% 30.40 in 10.0 mi Calm Calm - N/A   Clear
1:53 AM -0.9 °F -8.9 °F -4.0 °F 87% 30.37 in 10.0 mi SW 3.5 mph - N/A   Clear
2:53 AM -0.0 °F -7.9 °F -4.0 °F 83% 30.35 in 10.0 mi SW 3.5 mph - N/A   Clear
3:53 AM -0.9 °F - -5.1 °F 83% 30.34 in 10.0 mi Calm Calm - N/A   Clear
4:53 AM -0.0 °F -9.9 °F -2.9 °F 88% 30.34 in 10.0 mi SSW 4.6 mph - N/A   Clear
5:53 AM -0.9 °F - -5.1 °F 83% 30.32 in 10.0 mi Calm Calm - N/A   Clear
6:53 AM -0.0 °F -7.9 °F -2.9 °F 88% 30.29 in 10.0 mi South 3.5 mph - N/A   Clear
7:53 AM 3.9 °F -5.3 °F -0.0 °F 84% 30.27 in 10.0 mi SSW 4.6 mph - N/A   Clear
8:53 AM 3.9 °F -3.4 °F -0.9 °F 80% 30.29 in 10.0 mi ENE 3.5 mph - N/A   Clear
9:53 AM 8.1 °F - 3.9 °F 83% 30.27 in 10.0 mi Calm Calm - N/A   Clear
10:53 AM 10.0 °F - 5.0 °F 80% 30.24 in 10.0 mi Calm Calm - N/A   Clear
11:53 AM 12.9 °F 6.9 °F 6.1 °F 74% 30.21 in 10.0 mi East 3.5 mph - N/A   Clear
12:53 PM 15.1 °F 9.4 °F 8.1 °F 74% 30.16 in 10.0 mi WSW 3.5 mph - N/A   Clear
1:53 PM 17.1 °F - 9.0 °F 71% 30.13 in 10.0 mi Calm Calm - N/A   Clear
2:53 PM 19.0 °F - 10.9 °F 71% 30.11 in 10.0 mi Calm Calm - N/A   Clear
3:53 PM 19.0 °F - 10.9 °F 71% 30.13 in 10.0 mi Calm Calm - N/A   Clear
4:53 PM 18.0 °F 12.7 °F 10.9 °F 74% 30.12 in 10.0 mi NNW 3.5 mph - N/A   Clear
5:53 PM 15.1 °F 9.4 °F 10.0 °F 80% 30.12 in 10.0 mi South 3.5 mph - N/A   Scattered Clouds
6:53 PM 9.0 °F - 5.0 °F 84% 30.14 in 10.0 mi Calm Calm - N/A   Clear
7:53 PM 9.0 °F - 5.0 °F 84% 30.14 in 10.0 mi Calm Calm - N/A   Clear
8:53 PM 5.0 °F - 1.9 °F 87% 30.16 in 10.0 mi Calm Calm - N/A   Clear
10:53 PM 6.1 °F -2.8 °F 3.0 °F 87% 30.15 in 10.0 mi South 4.6 mph - N/A   Clear
11:53 PM 6.1 °F -2.8 °F 3.0 °F 87% 30.15 in 10.0 mi SSE 4.6 mph - N/A   Clear